GW5741 Weather Reports


time (UTC)temp
C
wind
direction
speed
KPH
gust
KPH
rain 1hr
cm
rain 24hr
cm
rain mn
cm
humidity
%
barometer
mb
20260510224949 18 0 0.0 0.0 0.00 0.00 0.00 82 1013.3
20260510224450 18 114 0.0 1.6 0.00 0.00 0.00 84 1013.2
20260510223949 18 122 0.0 1.6 0.00 0.00 0.00 84 1013.1
20260510223449 18 91 1.6 4.8 0.00 0.00 0.00 84 1013.1
20260510222950 18 160 0.0 0.0 0.00 0.00 0.00 84 1013.1
20260510222449 18 132 0.0 3.2 0.00 0.00 0.00 86 1013.0
20260510221949 18 77 0.0 1.6 0.00 0.00 0.00 87 1013.1
20260510221449 18 0 0.0 0.0 0.00 0.00 0.00 86 1013.0
20260510220949 18 0 0.0 0.0 0.00 0.00 0.00 87 1013.2
20260510220450 18 0 0.0 0.0 0.00 0.00 0.00 88 1013.3
20260510215949 18 0 0.0 0.0 0.00 0.00 0.00 88 1013.3
20260510215449 18 119 0.0 1.6 0.00 0.00 0.00 88 1013.2
20260510214949 18 0 0.0 0.0 0.00 0.00 0.00 87 1013.1
20260510214450 18 138 0.0 0.0 0.00 0.00 0.00 88 1013.2
20260510213949 18 0 0.0 0.0 0.00 0.00 0.00 86 1013.1
20260510213449 18 0 0.0 0.0 0.00 0.00 0.00 87 1013.1
20260510212949 18 0 0.0 0.0 0.00 0.00 0.00 87 1013.0
20260510212450 19 0 0.0 0.0 0.00 0.00 0.00 85 1012.9
20260510211949 19 139 0.0 1.6 0.00 0.00 0.00 84 1012.9
20260510211449 19 0 0.0 0.0 0.00 0.00 0.00 84 1012.8
20260510210950 19 0 0.0 0.0 0.00 0.00 0.00 84 1012.8
20260510210449 19 0 0.0 0.0 0.00 0.00 0.00 81 1012.8
20260510205950 19 0 0.0 0.0 0.00 0.00 0.00 82 1012.7
20260510205450 19 119 0.0 0.0 0.00 0.00 0.00 82 1012.7
20260510204950 19 0 0.0 0.0 0.00 0.00 0.00 80 1012.6
20260510204450 19 145 0.0 1.6 0.00 0.00 0.00 81 1012.7
20260510203949 19 0 0.0 0.0 0.00 0.00 0.00 79 1012.7
20260510203450 19 90 0.0 1.6 0.00 0.00 0.00 79 1012.6
20260510202950 19 0 0.0 0.0 0.00 0.00 0.00 81 1012.6
20260510202449 20 135 0.0 1.6 0.00 0.00 0.00 79 1012.7
20260510201949 20 117 0.0 1.6 0.00 0.00 0.00 78 1012.7
20260510201449 20 88 0.0 1.6 0.00 0.00 0.00 78 1012.7
20260510200949 19 115 0.0 1.6 0.00 0.00 0.00 77 1012.7
20260510200449 19 68 0.0 3.2 0.00 0.00 0.00 78 1012.6
20260510195949 18 72 0.0 3.2 0.00 0.00 0.00 81 1012.6
20260510195449 18 68 3.2 6.4 0.00 0.00 0.00 80 1012.7
20260510194950 18 0 0.0 0.0 0.00 0.00 0.00 80 1012.7
20260510194452 19 59 1.6 4.8 0.00 0.00 0.00 78 1012.8
20260510193949 18 14 0.0 0.0 0.00 0.00 0.00 81 1012.8
20260510193449 18 59 0.0 3.2 0.00 0.00 0.00 82 1012.7
20260510192949 18 80 1.6 4.8 0.00 0.00 0.00 82 1012.8
20260510192452 18 64 1.6 4.8 0.00 0.00 0.00 82 1012.8
20260510191949 19 0 0.0 0.0 0.00 0.00 0.00 81 1013.0
20260510191449 18 0 0.0 0.0 0.00 0.00 0.00 82 1013.0
20260510190949 18 128 1.6 3.2 0.00 0.00 0.00 82 1013.0
20260510190449 18 0 0.0 0.0 0.00 0.00 0.00 83 1013.1
20260510185950 19 277 0.0 1.6 0.00 0.00 0.00 82 1013.0
20260510185450 18 90 0.0 3.2 0.00 0.00 0.00 82 1013.1
20260510184950 18 0 0.0 0.0 0.00 0.00 0.00 82 1013.2
20260510184449 18 0 0.0 0.0 0.00 0.00 0.00 81 1013.2
20260510183949 19 122 0.0 3.2 0.00 0.00 0.00 82 1013.1
20260510183449 19 95 0.0 3.2 0.00 0.00 0.00 81 1013.1
20260510182950 19 124 1.6 3.2 0.00 0.00 0.00 80 1013.0
20260510182449 19 0 0.0 0.0 0.00 0.00 0.00 82 1013.1
20260510181508 20 246 0.0 0.0 0.00 0.00 0.00 80 1013.0
20260510180949 20 0 0.0 0.0 0.00 0.00 0.00 80 1013.0
20260510180450 20 88 0.0 3.2 0.00 0.00 0.00 77 1013.0
20260510175949 20 99 0.0 3.2 0.00 0.00 0.00 78 1013.0
20260510175449 20 0 0.0 0.0 0.00 0.00 0.00 76 1013.1
20260510174949 20 0 0.0 0.0 0.00 0.00 0.00 75 1013.1
20260510174449 20 273 0.0 4.8 0.00 0.00 0.00 79 1013.2
20260510173949 19 267 0.0 3.2 0.00 0.00 0.00 79 1013.3
20260510173449 19 98 1.6 3.2 0.00 0.00 0.00 79 1013.3
20260510172949 18 130 0.0 3.2 0.00 0.00 0.00 83 1013.2
20260510172449 18 97 0.0 3.2 0.00 0.00 0.00 83 1013.3
20260510171949 18 158 1.6 3.2 0.00 0.00 0.00 82 1013.3
20260510171450 17 41 1.6 3.2 0.00 0.00 0.00 83 1013.3
20260510170950 17 116 0.0 4.8 0.00 0.00 0.00 85 1013.3
20260510170450 17 0 0.0 0.0 0.00 0.00 0.00 88 1013.4
20260510165950 17 105 0.0 1.6 0.00 0.00 0.00 87 1013.5
20260510165451 17 0 0.0 0.0 0.00 0.00 0.00 87 1013.4
20260510164949 16 115 1.6 3.2 0.00 0.00 0.00 88 1013.3
20260510164450 16 61 3.2 6.4 0.00 0.00 0.00 87 1013.4
20260510163951 16 0 0.0 0.0 0.00 0.00 0.00 89 1013.6
20260510163450 16 86 0.0 3.2 0.00 0.00 0.00 93 1013.6
20260510162949 15 89 0.0 0.0 0.00 0.00 0.00 92 1013.6
20260510162452 15 264 0.0 3.2 0.00 0.00 0.00 92 1013.6
20260510161949 15 112 1.6 4.8 0.00 0.00 0.00 94 1013.6
20260510161448 15 82 0.0 3.2 0.00 0.00 0.00 94 1013.7
20260510160949 15 0 0.0 0.0 0.00 0.00 0.00 94 1013.7
20260510160450 15 56 1.6 3.2 0.00 0.00 0.00 95 1013.7
20260510155949 15 23 0.0 0.0 0.00 0.00 0.00 93 1013.7
20260510155449 15 193 0.0 3.2 0.00 0.00 0.00 94 1013.7
20260510154949 15 0 0.0 0.0 0.00 0.00 0.00 95 1013.8
20260510154449 15 0 0.0 0.0 0.00 0.00 0.00 95 1013.6
20260510153949 14 0 0.0 0.0 0.00 0.00 0.00 95 1013.7
20260510153450 14 263 0.0 3.2 0.00 0.00 0.00 96 1013.7
20260510152949 14 82 0.0 1.6 0.00 0.00 0.00 97 1013.8
20260510152449 13 94 1.6 1.6 0.00 0.00 0.00 98 1013.9
20260510151949 13 0 0.0 0.0 0.00 0.00 0.00 98 1013.9
20260510151449 13 0 0.0 0.0 0.00 0.00 0.00 99 1014.0
20260510150950 13 138 1.6 1.6 0.00 0.00 0.00 98 1014.0
20260510150449 13 104 1.6 1.6 0.00 0.00 0.00 99 1014.0
20260510145949 13 0 0.0 0.0 0.00 0.00 0.00 100 1013.9
20260510145449 13 104 0.0 1.6 0.00 0.00 0.00 99 1014.0
20260510144949 13 0 0.0 0.0 0.00 0.00 0.00 99 1014.0
20260510144449 12 0 0.0 0.0 0.00 0.00 0.00 99 1013.9
20260510143951 12 67 0.0 1.6 0.00 0.00 0.00 100 1013.8
20260510143449 12 0 0.0 0.0 0.00 0.00 0.00 99 1013.8
20260510142949 12 53 1.6 3.2 0.00 0.00 0.00 99 1013.7
20260510142449 12 76 0.0 0.0 0.00 0.00 0.00 99 1013.6
20260510141949 12 49 1.6 3.2 0.00 0.00 0.00 99 1013.6
20260510141450 12 0 0.0 0.0 0.00 0.00 0.00 99 1013.5
20260510140949 12 61 1.6 3.2 0.00 0.00 0.00 99 1013.6
20260510140450 12 0 0.0 0.0 0.00 0.00 0.00 99 1013.4
20260510135950 12 0 0.0 0.0 0.00 0.00 0.00 99 1013.4
20260510135449 12 89 0.0 1.6 0.00 0.00 0.00 99 1013.5
20260510134949 12 69 0.0 0.0 0.00 0.00 0.00 99 1013.5
20260510134450 12 60 0.0 0.0 0.00 0.00 0.00 99 1013.5
20260510133949 12 0 0.0 0.0 0.00 0.00 0.00 99 1013.5
20260510133449 11 0 0.0 0.0 0.00 0.00 0.00 99 1013.4
20260510132950 11 59 0.0 0.0 0.00 0.00 0.00 99 1013.4
20260510132449 11 0 0.0 0.0 0.00 0.00 0.00 99 1013.3
20260510131949 11 56 0.0 0.0 0.00 0.00 0.00 99 1013.3
20260510131449 11 30 0.0 3.2 0.00 0.00 0.00 99 1013.2
20260510130949 11 0 0.0 0.0 0.00 0.00 0.00 99 1013.3
20260510130450 11 0 0.0 0.0 0.00 0.00 0.00 99 1013.3
20260510125949 11 60 0.0 1.6 0.00 0.00 0.00 99 1013.3
20260510125450 11 0 0.0 0.0 0.00 0.00 0.00 99 1013.3
20260510124949 11 0 0.0 0.0 0.00 0.00 0.00 99 1013.2
20260510124449 11 0 0.0 0.0 0.00 0.00 0.00 99 1013.1
20260510123949 11 0 0.0 0.0 0.00 0.00 0.00 99 1013.0
20260510123449 11 0 0.0 0.0 0.00 0.00 0.00 99 1012.9
20260510122950 11 0 0.0 0.0 0.00 0.00 0.00 99 1012.9
20260510122450 11 0 0.0 0.0 0.00 0.00 0.00 99 1012.9
20260510121949 11 0 0.0 0.0 0.00 0.00 0.00 99 1012.9
20260510121449 11 0 0.0 0.0 0.00 0.00 0.00 99 1012.8
20260510120949 11 0 0.0 0.0 0.00 0.00 0.00 99 1012.7
20260510120451 11 60 0.0 3.2 0.00 0.00 0.00 99 1012.7
20260510115950 11 0 0.0 0.0 0.00 0.00 0.00 99 1012.7
20260510115450 11 53 0.0 1.6 0.00 0.00 0.00 99 1012.7
20260510114949 11 67 1.6 1.6 0.00 0.00 0.00 99 1012.7
20260510114449 11 79 3.2 4.8 0.00 0.00 0.00 99 1012.7
20260510113949 11 70 1.6 1.6 0.00 0.00 0.00 99 1012.6
20260510113449 11 60 1.6 3.2 0.00 0.00 0.00 99 1012.4
20260510112949 10 0 0.0 0.0 0.00 0.00 0.00 99 1012.3
20260510112449 10 63 0.0 0.0 0.00 0.00 0.00 99 1012.3
20260510111949 10 58 1.6 3.2 0.00 0.00 0.00 99 1012.3
20260510111450 10 68 1.6 3.2 0.00 0.00 0.00 99 1012.2
20260510110949 10 0 0.0 0.0 0.00 0.00 0.00 99 1012.2
20260510110449 10 0 0.0 0.0 0.00 0.00 0.00 99 1012.3
20260510105950 10 63 1.6 3.2 0.00 0.00 0.00 99 1012.4
20260510105450 10 62 0.0 0.0 0.00 0.00 0.00 99 1012.4
20260510104949 10 0 0.0 0.0 0.00 0.00 0.00 99 1012.4
20260510104449 10 69 0.0 1.6 0.00 0.00 0.00 99 1012.4
20260510103949 10 0 0.0 0.0 0.00 0.00 0.00 99 1012.3
20260510103449 10 0 0.0 0.0 0.00 0.00 0.00 99 1012.3
20260510102949 10 61 1.6 3.2 0.00 0.00 0.00 99 1012.2
20260510102449 10 69 3.2 4.8 0.00 0.00 0.00 99 1012.1
20260510101949 10 0 0.0 0.0 0.00 0.00 0.00 99 1012.3
20260510101451 10 0 0.0 0.0 0.00 0.00 0.00 99 1012.3
20260510100950 10 0 0.0 0.0 0.00 0.00 0.00 99 1012.4
20260510100449 10 0 0.0 0.0 0.00 0.00 0.00 99 1012.2
20260510095950 10 0 0.0 0.0 0.00 0.00 0.00 99 1012.1
20260510095450 10 0 0.0 0.0 0.00 0.00 0.00 99 1012.1
20260510094949 10 50 0.0 1.6 0.00 0.00 0.00 99 1012.1
20260510094454 10 78 1.6 1.6 0.00 0.00 0.00 99 1012.3
20260510093950 10 0 0.0 0.0 0.00 0.00 0.00 99 1012.4
20260510093449 10 0 0.0 0.0 0.00 0.00 0.00 99 1012.4
20260510092950 10 86 0.0 0.0 0.00 0.00 0.00 99 1012.4
20260510092449 10 0 0.0 0.0 0.00 0.00 0.00 99 1012.4
20260510091949 10 0 0.0 0.0 0.00 0.00 0.00 99 1012.4
20260510091450 10 0 0.0 0.0 0.00 0.00 0.00 99 1012.5
20260510090949 10 0 0.0 0.0 0.00 0.00 0.00 99 1012.4
20260510090451 10 0 0.0 0.0 0.00 0.00 0.00 99 1012.4
20260510085949 10 0 0.0 0.0 0.00 0.00 0.00 99 1012.5
20260510085449 10 0 0.0 0.0 0.00 0.00 0.00 99 1012.5
20260510084950 10 351 0.0 1.6 0.00 0.00 0.00 99 1012.6
20260510084449 10 0 0.0 0.0 0.00 0.00 0.00 99 1012.6
20260510083950 10 0 0.0 0.0 0.00 0.00 0.00 99 1012.6
20260510083450 10 0 0.0 0.0 0.00 0.00 0.00 99 1012.7
20260510082949 10 0 0.0 0.0 0.00 0.00 0.00 99 1012.5
20260510082449 10 107 1.6 1.6 0.00 0.00 0.00 99 1012.4
20260510081949 10 28 1.6 1.6 0.00 0.00 0.00 99 1012.4
20260510081449 10 33 0.0 1.6 0.00 0.00 0.00 99 1012.3
20260510080949 10 0 0.0 0.0 0.00 0.00 0.00 99 1011.9
20260510080449 10 87 0.0 0.0 0.00 0.00 0.00 99 1011.7
20260510075949 10 59 0.0 0.0 0.00 0.00 0.00 99 1011.6
20260510075449 10 0 0.0 0.0 0.00 0.00 0.00 99 1011.5
20260510074950 10 0 0.0 0.0 0.00 0.00 0.00 99 1011.5
20260510074449 10 53 1.6 3.2 0.00 0.00 0.00 99 1011.6
20260510073949 10 46 1.6 1.6 0.00 0.00 0.00 99 1011.5
20260510073449 10 0 0.0 0.0 0.00 0.00 0.00 99 1011.5
20260510072949 10 0 0.0 0.0 0.00 0.00 0.00 99 1011.6
20260510072450 10 0 0.0 0.0 0.00 0.00 0.00 99 1011.7
20260510071950 10 53 0.0 1.6 0.00 0.00 0.00 99 1011.7
20260510071449 10 0 0.0 0.0 0.00 0.00 0.00 99 1011.7
20260510070950 10 24 0.0 0.0 0.00 0.00 0.00 99 1011.7
20260510070449 10 0 0.0 0.0 0.00 0.00 0.00 99 1011.6
20260510065949 10 0 0.0 0.0 0.00 0.00 0.00 99 1011.6
20260510065449 11 0 0.0 0.0 0.00 0.00 0.00 99 1011.6
20260510064949 11 0 0.0 0.0 0.00 0.00 0.00 99 1011.6
20260510064449 11 0 0.0 0.0 0.00 0.00 0.00 99 1011.6
20260510063949 11 53 0.0 0.0 0.00 0.00 0.00 99 1011.7
20260510063450 11 0 0.0 0.0 0.00 0.00 0.00 99 1011.7
20260510062949 11 0 0.0 0.0 0.00 0.00 0.00 99 1011.6
20260510062450 11 0 0.0 0.0 0.00 0.00 0.00 99 1011.6
20260510061949 11 0 0.0 0.0 0.00 0.00 0.00 99 1011.5
20260510061449 11 60 0.0 1.6 0.00 0.00 0.00 99 1011.4
20260510060949 11 0 0.0 0.0 0.00 0.00 0.00 99 1011.4
20260510060450 11 0 0.0 0.0 0.00 0.00 0.00 99 1011.4
20260510055949 10 0 0.0 0.0 0.00 0.00 0.00 99 1011.4
20260510055449 10 66 0.0 3.2 0.00 0.00 0.00 99 1011.4
20260510054949 10 0 0.0 0.0 0.00 0.00 0.00 99 1011.5
20260510054450 10 0 0.0 0.0 0.00 0.00 0.00 99 1011.4
20260510053949 10 0 0.0 0.0 0.00 0.00 0.00 99 1011.5
20260510053449 10 0 0.0 0.0 0.00 0.00 0.00 99 1011.6
20260510052949 10 0 0.0 0.0 0.00 0.00 0.00 99 1011.6
20260510052452 10 0 0.0 0.0 0.00 0.00 0.00 99 1011.7
20260510051949 10 71 0.0 0.0 0.00 0.00 0.00 99 1011.6
20260510051449 10 0 0.0 0.0 0.00 0.00 0.00 99 1011.7
20260510050949 10 0 0.0 0.0 0.00 0.00 0.00 99 1011.7
20260510050450 10 0 0.0 0.0 0.00 0.00 0.00 99 1011.7
20260510045950 10 0 0.0 0.0 0.00 0.00 0.00 99 1011.7
20260510045449 10 0 0.0 0.0 0.00 0.00 0.00 99 1011.6
20260510044949 10 229 0.0 0.0 0.00 0.00 0.00 99 1011.7
20260510044450 10 0 0.0 0.0 0.00 0.00 0.00 99 1011.7
20260510043949 10 0 0.0 0.0 0.00 0.00 0.00 99 1011.7
20260510043449 10 0 0.0 0.0 0.00 0.00 0.00 99 1011.7
20260510042949 11 0 0.0 0.0 0.00 0.00 0.00 99 1011.6
20260510042449 11 0 0.0 0.0 0.00 0.00 0.00 99 1011.7
20260510041949 11 49 0.0 0.0 0.00 0.00 0.00 99 1011.7
20260510041449 11 0 0.0 0.0 0.00 0.00 0.00 99 1011.6
20260510040949 11 0 0.0 0.0 0.00 0.00 0.00 99 1011.5
20260510040449 11 0 0.0 0.0 0.00 0.00 0.00 99 1011.4
20260510035949 11 0 0.0 0.0 0.00 0.00 1.35 99 1011.3
20260510035449 11 0 0.0 0.0 0.00 0.00 1.35 99 1011.3
20260510034949 11 0 0.0 0.0 0.00 0.00 1.35 99 1011.3
20260510034449 11 62 0.0 0.0 0.00 0.00 1.35 99 1011.2
20260510033949 11 0 0.0 0.0 0.00 0.00 1.35 99 1011.2
20260510033449 11 0 0.0 0.0 0.00 0.00 1.35 99 1011.2
20260510032950 11 0 0.0 0.0 0.00 0.00 1.35 99 1011.3
20260510032449 11 0 0.0 0.0 0.00 0.00 1.35 99 1011.2
20260510031949 11 0 0.0 0.0 0.00 0.00 1.35 99 1011.2
20260510031449 11 0 0.0 0.0 0.00 0.00 1.35 99 1011.3
20260510030949 11 0 0.0 0.0 0.00 0.00 1.35 99 1011.3
20260510030449 11 0 0.0 0.0 0.00 0.00 1.35 99 1011.4
20260510025949 11 37 0.0 0.0 0.00 0.00 1.35 99 1011.4
20260510025450 11 54 0.0 0.0 0.00 0.00 1.35 99 1011.5
20260510024949 11 0 0.0 0.0 0.00 0.00 1.35 99 1011.4
20260510024450 11 0 0.0 0.0 0.00 0.00 1.35 99 1011.5
20260510023950 11 0 0.0 0.0 0.00 0.00 1.35 99 1011.5
20260510023449 11 0 0.0 0.0 0.00 0.00 1.35 99 1011.5
20260510022949 11 0 0.0 0.0 0.00 0.00 1.35 99 1011.5
20260510022450 11 0 0.0 0.0 0.00 0.00 1.35 99 1011.5
20260510021949 11 92 0.0 0.0 0.00 0.00 1.35 99 1011.5
20260510021449 11 76 0.0 0.0 0.00 0.00 1.35 99 1011.4
20260510020950 11 0 0.0 0.0 0.00 0.00 1.35 99 1011.5
20260510020449 11 0 0.0 0.0 0.00 0.00 1.35 99 1011.4
20260510015950 11 0 0.0 0.0 0.00 0.00 1.35 99 1011.5
20260510015450 11 79 0.0 0.0 0.00 0.00 1.35 99 1011.4
20260510014949 11 60 1.6 3.2 0.00 0.00 1.35 99 1011.4
20260510014450 11 0 0.0 0.0 0.00 0.00 1.35 99 1011.3
20260510013950 11 63 0.0 1.6 0.00 0.00 1.35 99 1011.4
20260510013449 11 0 0.0 0.0 0.00 0.00 1.35 99 1011.4
20260510012949 11 0 0.0 0.0 0.00 0.00 1.35 99 1011.2
20260510012449 11 0 0.0 0.0 0.00 0.00 1.35 99 1011.0
20260510011949 11 0 0.0 0.0 0.00 0.00 1.35 99 1011.0
20260510011449 11 102 0.0 0.0 0.00 0.00 1.35 99 1010.9
20260510010949 11 76 3.2 3.2 0.00 0.00 1.35 99 1010.7
20260510010449 11 67 1.6 4.8 0.00 0.00 1.35 99 1010.8
20260510005949 11 61 0.0 1.6 0.00 0.00 1.35 99 1010.8
20260510005449 11 74 0.0 1.6 0.00 0.00 1.35 99 1010.7
20260510004949 11 0 0.0 0.0 0.00 0.00 1.35 99 1010.7
20260510004449 11 0 0.0 0.0 0.00 0.00 1.35 99 1010.7
20260510003950 11 0 0.0 0.0 0.00 0.00 1.35 99 1010.7
20260510003449 11 0 0.0 0.0 0.00 0.00 1.35 99 1010.7
20260510002950 11 0 0.0 0.0 0.00 0.00 1.35 99 1010.7
20260510002449 11 0 0.0 0.0 0.00 0.00 1.35 99 1010.7
20260510001949 11 0 0.0 0.0 0.00 0.00 1.35 99 1010.6
20260510001449 12 0 0.0 0.0 0.00 0.00 1.35 99 1010.6
20260510000949 12 0 0.0 0.0 0.00 0.00 1.35 99 1010.5
20260510000449 12 0 0.0 0.0 0.00 0.00 1.35 99 1010.5
20260509235949 12 72 0.0 1.6 0.03 0.00 1.35 99 1010.5
20260509235450 12 70 0.0 1.6 0.10 0.00 1.35 99 1010.5
20260509234949 12 0 0.0 0.0 0.10 0.00 1.35 99 1010.6
20260509234449 12 0 0.0 0.0 0.20 0.00 1.35 99 1010.6
20260509233949 12 0 0.0 0.0 0.20 0.00 1.35 99 1010.6
20260509233449 12 106 0.0 0.0 0.25 0.00 1.35 99 1010.6
20260509232949 12 0 0.0 0.0 0.25 0.00 1.35 99 1010.7
20260509232449 12 52 0.0 1.6 0.30 0.00 1.35 99 1010.7
20260509231950 12 0 0.0 0.0 0.36 0.00 1.35 99 1010.6
20260509231450 12 0 0.0 0.0 0.36 0.00 1.35 99 1010.6
20260509230949 12 0 0.0 0.0 0.48 0.00 1.35 99 1010.5
20260509230449 12 58 0.0 1.6 0.48 0.00 1.35 99 1010.6
20260509225950 12 68 0.0 1.6 0.51 0.00 1.35 99 1010.6
20260509225449 12 0 0.0 0.0 0.38 0.00 1.35 99 1010.7